Dewpoint
62 65 70 71 71 71 72 72 72 72 72 71 71 71 72 71 71 71 70 70 69 68 67 67 67 66 66 66 66 67 67 68 67 66 67 67 67 68 68 69 66 66 69
63 66 70 71 71 71 71 71 71 71 71 71 71 71 72 71 71 71 70 69 68 67 67 66 66 65 66 66 66 67 67 67 67 68 67 67 66 66 67 69 68 68 69
64 66 69 71 70 71 71 71 71 71 71 71 71 71 71 71 71 70 70 69 68 67 67 66 67 67 67 67 68 68 66 67 66 66 65 61 66 66 66 67 68 69 69
65 67 67 71 70 70 71 71 71 71 71 71 71 71 71 71 70 70 70 69 68 68 67 67 67 67 67 67 65 64 66 66 64 63 61 61 62 66 67 66 67 68 68
65 66 68 70 69 70 70 70 70 70 70 71 71 70 70 70 70 70 70 69 68 68 67 67 67 67 65 63 61 62 63 65 62 59 60 61 61 65 66 66 66 67 68
66 66 69 70 70 70 70 70 70 70 70 70 70 70 70 70 70 70 70 68 67 67 67 67 67 65 63 61 60 63 65 64 59 59 60 63 61 65 66 67 68 67 68
66 66 69 69 70 70 71 71 70 70 70 70 70 70 70 70 70 70 69 69 67 67 68 68 66 63 60 59 59 62 64 60 58 59 60 61 62 65 65 66 67 67 68
66 67 68 69 70 70 71 70 70 69 69 70 70 70 70 69 69 69 69 69 68 67 67 66 64 61 58 58 59 61 61 60 60 61 61 60 64 64 64 65 66 67 67
67 67 68 67 69 70 70 69 69 69 69 69 69 69 69 68 68 69 69 68 68 66 65 65 63 59 58 58 58 60 61 61 61 61 61 61 65 64 63 63 64 64 64
66 66 66 67 67 68 69 68 68 68 68 68 68 68 67 68 68 68 68 67 66 65 65 63 60 58 58 58 58 58 62 62 62 61 61 62 65 64 64 64 64 64 64
65 65 66 66 67 67 67 68 68 67 68 68 68 67 67 64 65 66 65 66 65 64 63 60 59 58 58 58 58 57 56 58 62 62 62 65 66 65 64 65 64 64 64
63 65 65 66 66 67 65 67 67 67 66 66 66 66 65 65 64 63 64 65 64 62 60 59 59 58 56 55 56 56 56 57 62 62 62 66 66 65 65 65 65 64 64
63 64 65 66 67 66 65 66 66 66 67 67 67 66 65 65 65 63 62 61 60 60 56 56 57 55 56 55 58 59 58 62 62 62 63 66 66 66 65 65 65 64 64
63 64 65 65 66 66 66 65 65 66 66 66 66 66 65 64 65 63 61 60 59 57 57 56 55 58 58 60 61 61 60 59 63 63 63 65 67 66 65 66 66 65 64
63 64 64 65 66 66 66 65 65 65 66 65 66 66 64 63 63 63 62 60 57 58 57 57 56 57 58 60 61 62 60 59 61 63 63 65 67 67 67 66 67 65 64
63 64 65 65 66 66 65 66 66 65 65 65 65 66 65 63 63 62 62 60 58 58 56 56 56 56 58 59 61 62 62 59 62 64 63 64 66 67 67 66 65 66 65
62 64 65 65 66 66 65 66 65 65 65 65 65 65 65 64 64 62 61 60 58 58 59 57 58 58 58 61 62 63 63 61 60 63 63 62 63 65 66 65 65 66 66
62 63 65 66 66 66 66 66 65 65 65 65 65 65 66 64 63 63 61 60 60 59 57 56 56 57 59 62 62 63 63 62 59 61 62 62 63 63 64 64 65 64 65
62 63 64 65 66 66 66 66 65 65 65 65 65 65 65 64 63 62 60 60 62 59 58 56 56 58 60 62 62 63 64 64 63 59 60 62 62 62 63 63 63 65 65
62 63 63 64 65 66 66 65 65 65 65 65 65 65 65 64 63 63 60 60 61 60 60 60 57 58 60 61 60 63 65 65 65 65 64 63 62 62 63 63 64 63 62
62 62 63 63 64 64 64 63 63 63 64 64 65 65 65 64 63 63 61 61 60 60 60 62 60 58 59 63 62 63 61 60 59 62 64 63 62 61 61 63 62 61 60
62 63 63 63 64 64 63 63 63 63 63 64 65 65 65 64 64 63 61 61 61 61 62 62 61 60 61 63 61 61 60 58 54 55 59 58 57 56 56 56 56 56 55
61 62 63 63 64 64 63 63 63 63 63 63 63 64 65 64 64 63 62 61 62 62 62 62 62 61 60 62 63 60 58 56 53 50 52 52 51 52 51 49 48 49 51
62 62 62 63 64 64 64 63 63 61 61 62 63 64 64 65 64 63 63 63 63 63 63 63 63 62 61 60 62 62 60 58 55 48 48 47 45 45 45 43 43 45 46
61 62 62 62 63 64 64 64 63 61 60 61 63 63 64 65 64 63 63 63 63 63 64 64 63 63 63 61 61 61 59 58 57 51 47 45 43 42 42 42 42 43 43
61 62 63 62 62 63 64 63 62 61 60 58 61 62 63 63 64 64 64 63 63 63 63 64 64 64 63 62 61 61 60 58 56 51 46 47 44 41 41 41 42 42 41
Wind_Speed
22 26 22 15 17 19 22 25 28 28 27 28 28 26 24 22 21 20 19 18 19 20 22 22 21 21 20 19 19 18 18 17 17 18 18 18 18 19 18 15 13 16 17
29 29 24 19 17 20 23 26 28 28 27 28 27 25 23 22 21 20 19 19 20 21 22 22 21 21 20 19 17 17 16 16 16 16 14 18 18 19 18 17 16 17 17
34 30 27 20 19 21 25 26 28 28 27 27 26 25 23 22 21 20 19 19 20 21 22 22 21 20 17 15 13 13 15 16 15 14 11 15 15 17 17 17 18 19 17
33 30 28 21 19 21 24 25 27 28 27 27 25 24 23 21 21 20 18 20 20 21 21 21 19 17 14 13 11 10 12 13 14 11 13 13 15 16 17 17 18 18 18
29 30 27 23 21 19 23 24 25 26 26 25 25 24 22 21 20 20 19 19 20 20 21 20 17 15 13 11 10 10 10 13 13 13 13 12 13 15 17 16 17 19 19
28 28 28 23 21 19 19 22 23 25 25 25 23 23 21 21 20 19 19 20 20 20 20 18 16 14 13 11 11 12 15 13 10 12 13 12 14 15 16 16 17 17 17
28 26 29 24 22 21 18 19 21 23 24 25 23 22 21 20 19 18 18 19 20 20 19 16 14 14 13 11 12 12 15 11 10 11 11 12 13 14 16 16 16 16 17
27 26 27 25 24 23 20 20 21 21 23 22 22 22 22 20 19 17 16 17 17 18 17 17 15 13 12 12 12 11 14 11 8 10 10 11 12 14 15 15 14 14 15
25 27 25 26 26 24 24 23 23 23 23 22 22 21 21 21 20 18 17 16 16 16 16 16 14 13 12 11 11 11 12 10 9 8 9 9 11 13 13 13 13 13 14
24 26 27 26 25 25 25 25 25 24 24 23 22 22 21 20 18 17 16 16 16 16 15 15 13 13 12 11 10 12 12 10 7 8 8 10 11 12 11 11 12 12 14
21 24 26 26 25 23 23 23 24 25 24 23 21 21 21 17 17 17 12 15 15 16 15 14 14 12 11 9 9 10 9 5 7 6 7 12 11 11 10 10 11 12 12
28 27 26 26 25 24 21 23 21 20 20 19 19 20 16 16 16 14 14 14 14 13 14 13 14 12 9 8 8 8 5 6 6 8 8 12 10 11 10 10 10 11 10
33 27 27 26 24 24 21 21 18 18 17 16 19 19 16 15 14 13 12 12 10 11 10 11 10 8 7 8 7 6 6 6 7 8 11 13 11 10 9 9 9 10 9
34 31 28 27 24 23 20 20 20 19 17 17 16 18 16 14 15 13 12 12 11 10 9 8 8 7 7 6 6 6 6 5 7 8 12 14 12 11 10 9 9 9 9
29 33 32 29 25 25 23 21 20 20 19 18 16 17 16 16 15 14 13 12 11 9 9 8 7 7 8 6 5 5 6 5 6 8 9 13 12 11 10 9 9 9 9
28 30 30 29 28 25 24 23 21 20 20 19 16 17 18 16 15 15 14 13 11 10 9 8 8 7 7 6 6 4 4 5 6 8 8 11 12 11 10 7 8 12 10
29 26 30 30 28 26 26 24 21 21 20 18 17 18 20 18 17 17 15 14 12 11 9 7 7 6 6 6 6 5 4 5 6 7 8 8 10 5 4 4 8 10 11
28 30 27 26 28 27 26 23 22 21 19 18 17 17 21 20 18 17 16 15 13 12 11 9 9 9 8 8 7 5 4 5 5 5 6 5 5 6 6 7 10 11 16
31 29 30 28 30 28 25 22 20 20 18 17 17 18 23 22 20 18 16 15 15 14 13 11 10 9 10 9 8 5 2 2 2 3 4 6 6 7 8 11 13 19 21
29 30 29 27 26 25 20 18 17 16 19 17 18 21 23 22 22 20 16 16 17 15 15 13 12 11 9 9 7 5 5 5 4 4 4 7 10 10 9 13 16 18 21
29 30 31 30 28 26 24 24 23 25 23 20 21 24 25 23 24 22 18 18 17 18 18 17 14 14 12 8 7 7 8 8 10 8 6 7 9 11 12 14 14 15 16
32 33 32 33 30 29 25 25 21 22 20 20 20 24 25 26 26 24 22 20 21 18 17 18 18 12 12 12 9 9 6 3 9 8 7 9 8 9 12 12 14 15 14
32 32 33 34 33 31 29 23 19 18 14 19 23 24 26 26 26 26 25 21 21 20 19 19 19 18 16 12 12 7 5 8 6 4 9 9 9 9 10 11 12 12 12
31 29 32 33 34 32 30 28 30 27 28 26 23 21 23 27 27 27 25 24 23 21 20 21 20 20 17 16 13 10 3 5 5 6 5 9 10 10 9 10 11 12 13
28 30 31 33 33 33 34 31 30 28 23 20 21 24 25 25 27 28 27 26 24 22 22 22 22 22 21 19 18 14 9 6 7 5 6 6 8 7 8 9 10 11 11
27 29 29 33 35 34 35 35 35 34 26 21 23 24 24 23 23 27 28 27 26 24 25 24 23 25 23 21 21 19 19 13 10 6 5 9 8 4 6 7 8 8 10
Wind_Direction
165 162 167 177 157 149 134 131 132 134 138 135 131 130 129 128 122 117 114 112 111 107 106 104 100 99 96 94 90 87 80 71 71 76 71 72 66 72 71 67 84 83 80
153 159 165 170 161 149 137 134 136 137 138 132 131 130 128 126 123 120 119 118 115 113 111 110 108 107 104 102 99 91 87 80 72 68 73 76 66 70 70 65 70 81 75
151 157 165 166 161 153 141 140 138 136 135 132 132 131 130 129 125 124 125 123 120 119 118 119 115 112 111 109 102 95 97 93 86 81 76 79 77 76 69 62 66 76 74
150 155 164 164 160 153 144 142 138 137 134 132 131 132 132 130 128 129 130 126 125 124 124 121 120 119 113 103 98 101 111 100 94 96 82 82 82 77 77 69 63 68 79
153 156 160 160 157 155 145 142 138 135 133 131 133 133 133 132 135 135 133 131 130 129 128 126 122 115 105 93 81 84 119 111 104 92 87 85 85 85 82 77 79 71 64
156 159 154 157 155 151 145 139 138 135 133 132 133 134 136 137 139 139 139 137 135 134 132 130 123 112 98 87 73 82 119 117 113 97 92 90 83 88 86 82 78 76 75
158 159 156 155 153 150 147 142 138 136 135 135 137 137 139 139 140 142 142 140 140 136 134 130 121 111 102 90 79 95 118 119 106 98 96 90 88 86 84 82 78 77 76
158 158 156 155 153 153 153 148 142 140 138 138 140 140 140 139 141 142 142 138 137 137 137 134 128 118 106 95 88 102 127 126 115 103 96 90 92 88 85 83 82 78 78
156 155 157 162 157 154 154 150 147 145 144 142 142 141 141 142 145 146 144 139 139 141 138 134 129 122 113 109 102 108 139 135 121 113 108 100 101 92 89 87 83 79 77
161 160 163 166 165 164 157 152 150 150 149 147 146 146 146 146 148 150 148 147 146 142 138 131 129 126 125 122 117 120 139 137 132 127 116 113 117 105 98 93 88 84 78
169 170 169 167 168 167 161 159 154 154 153 149 149 150 150 156 158 158 159 156 152 147 142 135 134 134 131 126 127 136 145 147 151 143 133 139 130 119 114 107 99 91 87
178 179 175 171 171 169 164 163 164 162 161 162 162 162 163 162 164 165 163 162 158 152 145 143 140 142 150 146 142 151 147 153 161 154 137 149 139 132 129 119 110 104 100
177 176 181 174 173 172 169 169 167 168 166 169 168 168 167 163 163 164 163 166 167 162 159 155 151 158 155 153 150 146 137 148 139 146 144 155 151 146 141 131 123 113 103
182 182 180 179 174 176 174 175 172 169 172 169 176 171 168 169 171 172 173 170 172 175 168 168 164 153 155 156 153 156 158 148 154 148 153 164 160 159 156 153 140 129 125
194 183 183 179 180 177 177 177 177 177 176 175 175 182 177 177 178 174 178 176 176 174 175 173 169 170 161 165 167 160 160 157 161 156 157 173 169 171 167 166 160 152 139
196 193 180 181 182 179 180 180 179 178 176 178 180 185 186 182 182 181 180 183 179 180 178 178 178 177 171 170 178 182 170 165 164 163 160 174 184 182 176 157 158 157 154
199 194 186 181 183 182 186 182 182 182 179 181 185 187 192 191 186 183 183 185 185 181 178 179 177 179 181 177 177 179 189 182 184 175 173 174 182 163 155 138 137 146 148
192 196 194 187 184 182 187 184 183 186 183 187 187 188 196 197 190 189 188 190 183 180 182 187 186 183 186 184 177 186 201 203 209 195 179 159 135 156 154 133 129 125 123
194 191 193 192 189 185 184 184 185 184 188 191 190 191 196 197 194 194 197 190 183 182 186 188 190 196 191 192 186 175 217 183 204 186 185 160 143 145 141 130 125 124 121
191 189 191 192 190 186 182 181 189 187 195 193 194 200 196 196 196 196 199 196 187 189 188 190 194 197 201 203 182 142 104 79 65 50 98 101 120 118 123 128 126 123 115
186 186 190 189 189 183 186 186 190 196 195 199 200 203 198 196 196 197 200 198 195 196 193 187 187 192 198 183 163 130 81 74 68 50 71 98 112 119 120 124 117 115 105
189 188 187 191 188 190 191 196 198 197 203 203 204 204 201 199 195 197 200 200 198 197 196 188 183 181 194 187 190 175 176 133 67 59 89 90 99 115 114 112 114 114 119
196 189 190 189 191 190 192 193 199 195 203 203 208 205 203 201 200 198 200 201 199 199 198 195 192 190 191 192 199 188 171 213 139 60 63 81 95 103 108 105 101 97 98
203 194 192 192 192 191 189 192 195 196 200 205 206 200 200 204 204 203 203 202 201 200 202 200 198 197 193 197 200 213 176 144 170 158 85 73 81 93 100 99 95 97 97
203 197 197 194 193 189 191 195 196 205 210 203 200 197 201 204 208 205 204 203 205 204 204 202 199 199 199 201 201 193 197 163 136 147 158 140 87 81 93 102 108 112 112
203 199 195 196 197 193 192 197 199 206 204 202 197 197 199 202 206 209 208 208 206 208 206 205 201 201 201 204 208 206 201 196 186 156 129 151 147 111 115 127 128 131 130